When you browse on this site, cookies collect data to enhance your experience and personalize the content and advertising you see.
Visit our Privacy Policy to learn more. By continuing to use the site, you agree to this use of cookies and data.
  • In Latvia
  • List of Countries
  • For 7 days
  • Water Temperature
  • Satellite Maps
  • Weather Map
  • Weather Widgets
  • user-avatar
    Login

    Hourly Weather Hail

    Today, 19 April, Friday

    Time Temperature Precipitation Wind Pressure Humidity
    00:00 +20°C° 0 mm 1 mps 659 mmHg 25%
    01:00 +19°C° 0 mm 1 mps 659 mmHg 27%
    02:00 +19°C° 0 mm 1 mps 659 mmHg 29%
    03:00 +17°C° 0 mm 2 mps 659 mmHg 30%
    04:00 +16°C° 0 mm 2 mps 659 mmHg 32%
    05:00 +16°C° 0 mm 2 mps 659 mmHg 33%
    06:00 +15°C° 0 mm 1 mps 659 mmHg 35%
    07:00 +18°C° 0 mm 1 mps 660 mmHg 31%
    08:00 +18°C° 0 mm 2 mps 660 mmHg 28%
    09:00 +20°C° 0 mm 1 mps 661 mmHg 24%
    10:00 +21°C° 0 mm 2 mps 661 mmHg 21%
    11:00 +22°C° 0 mm 3 mps 661 mmHg 17%
    12:00 +25°C° 0 mm 3 mps 662 mmHg 14%
    13:00 +26°C° 0 mm 4 mps 661 mmHg 12%
    14:00 +27°C° 0 mm 5 mps 661 mmHg 11%
    15:00 +28°C° 0 mm 6 mps 661 mmHg 10%
    16:00 +27°C° 0 mm 6 mps 660 mmHg 11%
    17:00 +26°C° 0 mm 6 mps 660 mmHg 12%
    18:00 +26°C° 0 mm 6 mps 660 mmHg 12%
    19:00 +24°C° 0 mm 6 mps 660 mmHg 13%
    20:00 +23°C° 0 mm 5 mps 660 mmHg 15%
    21:00 +22°C° 0 mm 5 mps 660 mmHg 16%
    22:00 +21°C° 0 mm 4 mps 660 mmHg 18%
    23:00 +20°C° 0 mm 2 mps 660 mmHg 19%

    Tomorrow, 20 April, Saturday

    Time Temperature Precipitation Wind Pressure Humidity
    00:00 +20°C° 0 mm 1 mps 660 mmHg 21%
    01:00 +19°C° 0 mm 3 mps 660 mmHg 21%
    02:00 +17°C° 0 mm 5 mps 660 mmHg 21%
    03:00 +16°C° 0 mm 7 mps 660 mmHg 21%
    04:00 +15°C° 0 mm 6 mps 660 mmHg 22%
    05:00 +14°C° 0 mm 5 mps 660 mmHg 23%
    06:00 +13°C° 0 mm 4 mps 660 mmHg 24%
    07:00 +14°C° 0 mm 4 mps 660 mmHg 24%
    08:00 +15°C° 0 mm 5 mps 661 mmHg 23%
    09:00 +16°C° 0 mm 5 mps 661 mmHg 23%
    10:00 +18°C° 0 mm 4 mps 661 mmHg 22%
    11:00 +19°C° 0 mm 3 mps 661 mmHg 20%
    12:00 +20°C° 0 mm 2 mps 661 mmHg 18%
    13:00 +21°C° 0 mm 2 mps 661 mmHg 16%
    14:00 +23°C° 0 mm 2 mps 661 mmHg 14%
    15:00 +24°C° 0 mm 3 mps 660 mmHg 12%
    16:00 +24°C° 0 mm 3 mps 660 mmHg 12%
    17:00 +23°C° 0 mm 4 mps 660 mmHg 12%
    18:00 +23°C° 0 mm 4 mps 660 mmHg 12%
    19:00 +22°C° 0 mm 4 mps 660 mmHg 13%
    20:00 +21°C° 0 mm 4 mps 660 mmHg 15%
    21:00 +20°C° 0 mm 4 mps 660 mmHg 16%
    22:00 +20°C° 0 mm 3 mps 659 mmHg 17%
    23:00 +19°C° 0 mm 3 mps 659 mmHg 18%

    Day after tomorrow, 21 April, Sunday

    Time Temperature Precipitation Wind Pressure Humidity
    00:00 +18°C° 0 mm 3 mps 659 mmHg 19%
    01:00 +18°C° 0 mm 3 mps 659 mmHg 20%
    02:00 +17°C° 0 mm 3 mps 658 mmHg 21%
    03:00 +17°C° 0 mm 2 mps 658 mmHg 22%
    04:00 +16°C° 0 mm 2 mps 658 mmHg 22%
    05:00 +16°C° 0 mm 2 mps 658 mmHg 23%
    06:00 +14°C° 0 mm 3 mps 658 mmHg 23%
    07:00 +17°C° 0 mm 3 mps 658 mmHg 22%
    08:00 +18°C° 0 mm 4 mps 659 mmHg 20%
    09:00 +20°C° 0 mm 5 mps 660 mmHg 19%
    10:00 +22°C° 0 mm 5 mps 660 mmHg 17%
    11:00 +23°C° 0 mm 5 mps 660 mmHg 15%
    12:00 +26°C° 0 mm 5 mps 660 mmHg 13%
    13:00 +26°C° 0 mm 6 mps 659 mmHg 11%
    14:00 +27°C° 0 mm 7 mps 659 mmHg 9%
    15:00 +28°C° 0 mm 8 mps 658 mmHg 8%
    16:00 +27°C° 0 mm 8 mps 658 mmHg 9%
    17:00 +24°C° 0 mm 8 mps 657 mmHg 10%
    18:00 +23°C° 0 mm 9 mps 657 mmHg 11%
    19:00 +22°C° 0 mm 8 mps 658 mmHg 12%
    20:00 +21°C° 0 mm 7 mps 658 mmHg 14%
    21:00 +20°C° 0 mm 6 mps 658 mmHg 15%
    22:00 +19°C° 0 mm 5 mps 658 mmHg 15%
    23:00 +18°C° 0 mm 4 mps 658 mmHg 16%

    22 April, Monday

    Time Temperature Precipitation Wind Pressure Humidity
    00:00 +18°C° 0 mm 3 mps 658 mmHg 16%
    01:00 +17°C° 0 mm 4 mps 658 mmHg 19%
    02:00 +14°C° 0 mm 5 mps 658 mmHg 22%
    03:00 +13°C° 0 mm 6 mps 658 mmHg 24%
    04:00 +13°C° 0 mm 6 mps 658 mmHg 26%
    05:00 +11°C° 0 mm 6 mps 658 mmHg 27%
    06:00 +10°C° 0 mm 5 mps 659 mmHg 28%
    07:00 +12°C° 0 mm 5 mps 659 mmHg 25%
    08:00 +13°C° 0 mm 5 mps 660 mmHg 23%
    09:00 +13°C° 0 mm 5 mps 661 mmHg 21%
    10:00 +15°C° 0 mm 5 mps 661 mmHg 17%
    11:00 +16°C° 0 mm 5 mps 661 mmHg 14%
    12:00 +17°C° 0 mm 5 mps 661 mmHg 10%
    13:00 +19°C° 0 mm 5 mps 661 mmHg 9%
    14:00 +20°C° 0 mm 5 mps 660 mmHg 8%
    15:00 +21°C° 0 mm 6 mps 660 mmHg 7%
    16:00 +21°C° 0 mm 5 mps 660 mmHg 7%
    17:00 +20°C° 0 mm 5 mps 660 mmHg 7%
    18:00 +20°C° 0 mm 5 mps 660 mmHg 7%
    19:00 +19°C° 0 mm 5 mps 661 mmHg 8%
    20:00 +18°C° 0 mm 4 mps 661 mmHg 10%
    21:00 +18°C° 0 mm 4 mps 661 mmHg 11%
    22:00 +17°C° 0 mm 3 mps 661 mmHg 13%
    23:00 +16°C° 0 mm 3 mps 661 mmHg 14%

    23 April, Tuesday

    Time Temperature Precipitation Wind Pressure Humidity
    00:00 +14°C° 0 mm 3 mps 661 mmHg 16%
    01:00 +14°C° 0 mm 2 mps 661 mmHg 18%
    02:00 +14°C° 0 mm 2 mps 660 mmHg 19%
    03:00 +13°C° 0 mm 2 mps 660 mmHg 21%
    04:00 +13°C° 0 mm 2 mps 661 mmHg 22%
    05:00 +12°C° 0 mm 2 mps 661 mmHg 23%
    06:00 +12°C° 0 mm 2 mps 662 mmHg 24%
    07:00 +13°C° 0 mm 2 mps 662 mmHg 22%
    08:00 +14°C° 0 mm 2 mps 663 mmHg 20%
    09:00 +16°C° 0 mm 2 mps 664 mmHg 17%
    10:00 +17°C° 0 mm 2 mps 664 mmHg 15%
    11:00 +19°C° 0 mm 2 mps 664 mmHg 13%
    12:00 +20°C° 0 mm 2 mps 664 mmHg 11%
    13:00 +21°C° 0 mm 3 mps 664 mmHg 10%
    14:00 +22°C° 0 mm 4 mps 664 mmHg 9%
    15:00 +23°C° 0 mm 4 mps 664 mmHg 8%
    16:00 +22°C° 0 mm 5 mps 664 mmHg 9%
    17:00 +22°C° 0 mm 5 mps 664 mmHg 10%
    18:00 +21°C° 0 mm 5 mps 664 mmHg 11%
    19:00 +20°C° 0 mm 5 mps 664 mmHg 12%
    20:00 +20°C° 0 mm 5 mps 664 mmHg 14%
    21:00 +19°C° 0 mm 4 mps 664 mmHg 15%
    22:00 +18°C° 0 mm 4 mps 664 mmHg 16%
    23:00 +17°C° 0 mm 4 mps 664 mmHg 17%

    24 April, Wednesday

    Time Temperature Precipitation Wind Pressure Humidity
    00:00 +16°C° 0 mm 3 mps 664 mmHg 18%
    01:00 +16°C° 0 mm 3 mps 664 mmHg 19%
    02:00 +14°C° 0 mm 3 mps 664 mmHg 20%
    03:00 +14°C° 0 mm 3 mps 663 mmHg 22%
    04:00 +13°C° 0 mm 3 mps 664 mmHg 23%
    05:00 +13°C° 0 mm 3 mps 664 mmHg 24%
    06:00 +13°C° 0 mm 2 mps 664 mmHg 26%
    07:00 +14°C° 0 mm 3 mps 665 mmHg 23%
    08:00 +16°C° 0 mm 3 mps 666 mmHg 21%
    09:00 +17°C° 0 mm 4 mps 666 mmHg 19%
    10:00 +19°C° 0 mm 3 mps 666 mmHg 17%
    11:00 +20°C° 0 mm 2 mps 666 mmHg 14%
    12:00 +22°C° 0 mm 1 mps 666 mmHg 12%
    13:00 +23°C° 0 mm 2 mps 665 mmHg 11%
    14:00 +24°C° 0 mm 2 mps 665 mmHg 10%
    15:00 +25°C° 0 mm 2 mps 665 mmHg 9%
    16:00 +25°C° 0 mm 3 mps 664 mmHg 9%
    17:00 +25°C° 0 mm 3 mps 664 mmHg 9%
    18:00 +25°C° 0 mm 3 mps 664 mmHg 9%
    19:00 +24°C° 0 mm 3 mps 664 mmHg 10%
    20:00 +22°C° 0 mm 4 mps 664 mmHg 11%
    21:00 +21°C° 0 mm 4 mps 665 mmHg 12%
    22:00 +20°C° 0 mm 4 mps 664 mmHg 13%
    23:00 +19°C° 0 mm 4 mps 664 mmHg 14%
    Show more